Temp_Advection
nan nan nan nan nan nan nan nan nan nan nan nan nan nan nan nan nan nan nan nan nan nan nan nan nan nan nan nan nan nan nan nan nan nan nan nan nan nan nan nan nan nan nan nan nan
nan -0 -0 -0 -0 -0 -0 -0 -0 -0 -0 -0 -1 -1 -0 -0 -2 -7 -5 2 -1 -1 0 -0 -0 0 0 -0 0 0 -0 -0 -0 -0 -0 -0 -0 -0 0 0 0 -0 0 0 nan
nan -0 -0 -0 -0 -0 -0 -0 -1 -0 -0 -0 -0 -0 -0 -0 -3 -8 -2 2 1 -0 -0 1 0 0 0 0 0 0 -0 -0 -0 -1 -0 0 -0 0 -0 -0 -1 -2 -1 -0 nan
nan -0 -0 -0 -0 -0 -0 -0 -0 -0 -1 -0 -0 -1 -0 -1 -1 0 -0 1 0 -1 1 2 0 0 0 0 0 0 -0 -0 -1 -0 0 -0 -0 0 -0 -1 -1 -0 -0 -0 nan
nan 0 -0 -0 -0 0 -0 -0 -0 0 0 -0 -1 -0 -0 -0 -4 -2 0 -0 0 -0 1 1 -1 -0 -0 -0 0 -0 -0 -0 -0 0 0 0 -0 -0 -0 -1 0 0 0 0 nan
nan 0 0 0 0 0 0 -0 -0 -0 0 1 0 -0 -0 -2 -3 -2 -1 1 1 -0 -0 -0 -0 -1 -0 -0 -0 -0 -0 -0 1 0 0 -0 -0 0 -0 -0 0 0 0 0 nan
nan 0 0 1 0 0 0 -0 -1 -1 -0 1 1 -0 -1 -2 -2 -1 -1 1 2 -0 -1 -1 -1 -0 0 -0 -1 1 0 0 -0 0 0 -0 0 -0 -2 0 0 0 0 1 nan
nan -0 0 0 0 0 0 -0 -1 -0 -0 0 1 0 -0 -1 -2 -2 -2 -0 1 0 -1 -1 -0 0 -0 -0 0 0 0 -1 -0 0 -0 0 0 -1 -1 0 0 -0 0 0 nan
nan -0 -0 0 0 0 -0 -0 -1 -1 -0 0 0 0 -0 -0 -0 -0 -0 -1 -1 -0 -1 -0 -0 -0 0 0 -0 0 0 0 -0 -0 0 1 -0 -1 1 1 -0 -0 -0 -0 nan
nan 0 0 0 -0 -0 -0 -1 -1 -0 -0 -0 0 -0 -1 -1 -0 -0 -0 -0 -1 -0 -0 -0 -0 0 0 -0 -0 -0 0 -0 -0 -0 0 -0 -0 -0 0 1 1 1 1 0 nan
nan 0 0 -0 0 0 -0 -0 -1 -0 -1 0 -0 -1 -2 0 -0 -1 0 0 -0 -0 -1 -1 -0 -0 -1 -1 -0 -0 -0 -1 -0 -0 0 -1 -0 0 1 0 -0 -1 -1 -1 nan
nan 0 0 -0 -0 0 0 -0 -0 -0 -1 -1 0 -1 -1 0 -0 -2 -1 -0 -0 -0 -1 -0 -1 -1 -0 0 0 0 -0 0 -0 0 0 0 -0 0 0 -0 -1 -1 -1 -1 nan
nan 0 0 -0 -0 -0 -0 0 1 1 -0 -1 -0 -0 -0 0 -0 -1 -1 -0 -0 -1 -1 -1 -1 -0 0 0 -0 0 -0 -0 0 -0 -0 -0 -0 0 0 -0 -1 -1 -1 -1 nan
nan 0 0 0 -0 -0 -0 0 0 0 -0 -0 -0 -0 0 0 -0 -1 0 -0 -0 -0 -1 -1 -1 0 0 0 -0 -0 -1 -0 0 -0 0 0 0 0 -0 -0 -0 -0 -1 -2 nan
nan 1 0 -0 0 -0 -0 -0 0 -0 -0 -1 -0 0 -0 0 -0 -0 -0 -0 -1 -1 0 -1 -1 -0 -0 -1 -0 -0 -0 0 0 0 0 0 -0 -0 -0 -0 -0 0 -2 -4 nan
nan 1 0 0 -0 -0 -0 -0 -0 -1 -1 -1 -0 -0 -0 -0 -0 -0 -0 -0 -0 0 -1 -2 -0 -0 -1 -0 0 -0 0 1 1 1 0 -1 -0 -0 0 0 -0 -1 -2 -1 nan
nan 0 0 0 -0 0 -0 -0 -1 -0 -0 -0 -0 -0 -0 -0 -0 -0 -0 -0 -0 0 -0 -0 -2 -0 0 0 0 1 1 0 0 0 -1 0 0 -1 0 -0 -1 -0 -1 -1 nan
nan 0 0 0 0 0 -0 -0 -0 -0 -0 -0 -0 -0 -0 -0 -0 -0 -0 -0 -1 0 -1 -1 -0 -1 0 0 -0 1 0 -0 0 0 0 0 -0 -0 0 -0 1 -1 -1 -0 nan
nan 0 0 0 0 0 -0 -0 -1 -0 -0 -0 -0 -0 -0 -0 -0 -0 -0 -0 0 -0 -0 -1 -0 -0 -0 -0 -1 0 -1 -0 -0 -0 -0 0 -0 0 0 -0 -0 -0 -0 -2 nan
nan 0 0 0 0 0 0 -0 -0 -0 -0 -0 0 0 0 -0 -0 -0 -0 -0 0 -0 0 -1 -1 -0 0 0 0 -0 -1 0 0 0 -0 -0 -1 0 -0 -1 -1 -0 -0 -1 nan
nan 0 0 0 0 -0 0 0 -0 -0 -0 0 0 0 -0 0 -0 -0 -0 -0 -0 -0 0 -0 -0 -1 1 0 -0 -0 -0 -0 -0 -0 -0 -0 -0 0 -1 -1 -0 -0 0 -1 nan
nan 0 0 0 0 0 0 -0 -0 -0 0 0 -0 -0 -0 -0 0 -0 -0 -0 0 -0 0 -0 -0 -1 -1 0 0 -0 -0 -0 -0 -0 0 -0 -0 0 0 0 0 0 -0 -1 nan
nan 0 0 0 0 0 -0 -0 -0 -0 0 -0 -0 -0 -0 0 0 -0 -0 0 -0 -0 -0 -0 -0 -0 -1 0 1 2 1 -0 0 -0 -1 -0 0 0 0 -0 -0 -0 -1 -0 nan
nan -0 -0 -0 0 -0 -0 -0 -0 -0 -0 -0 0 -0 0 -0 -0 -0 -0 -0 0 -0 0 0 -0 -0 0 -0 -0 -1 0 1 0 -0 -0 -0 -1 -0 -0 0 0 -0 -0 0 nan
nan 0 0 0 -0 -0 -0 -0 -0 -0 -0 0 0 0 0 -0 -0 -0 -0 -0 -0 -0 -0 -0 -0 -0 -0 0 0 -0 -1 -2 0 0 0 0 0 -0 0 0 0 -0 0 0 nan
nan -0 0 0 0 0 -0 -0 -0 -0 0 -0 -0 -0 0 -0 -0 0 -0 -0 -0 -0 -0 -0 -0 -0 -1 -1 0 0 -0 -1 -1 0 0 -0 -1 0 0 0 0 -0 -0 -0 nan
nan nan nan nan nan nan nan nan nan nan nan nan nan nan nan nan nan nan nan nan nan nan nan nan nan nan nan nan nan nan nan nan nan nan nan nan nan nan nan nan nan nan nan nan nan
Wind_Speed
19 21 21 21 20 20 19 20 23 22 20 20 22 21 24 27 34 36 38 42 32 17 17 17 11 11 14 12 13 8 4 8 8 7 5 2 5 5 12 10 10 14 5 8 25
18 20 19 21 23 19 21 21 21 22 22 21 21 20 21 24 30 46 43 39 37 27 28 23 20 14 13 12 10 7 9 11 6 4 4 3 5 11 8 8 6 13 11 13 28
20 20 21 19 21 20 22 22 22 22 22 22 21 18 18 23 27 41 27 34 28 23 30 28 22 16 14 13 12 7 15 10 6 14 6 3 3 5 7 4 13 24 22 21 32
22 22 20 21 21 22 21 23 23 23 23 23 23 17 16 17 9 11 4 17 8 15 26 29 22 18 8 12 16 6 12 15 22 11 5 3 4 2 10 7 16 22 27 26 34
21 20 20 22 21 23 23 23 23 24 25 24 23 20 18 15 30 17 8 9 4 6 16 26 25 23 13 8 11 8 7 18 22 13 17 8 8 5 9 13 8 16 25 28 32
19 20 20 21 23 24 24 26 26 25 23 25 23 20 21 25 29 19 25 27 24 14 12 17 12 24 11 13 13 7 18 20 14 24 16 7 9 5 7 11 14 16 25 30 32
20 20 22 24 23 26 25 28 28 28 25 22 23 22 26 39 20 14 13 28 27 16 20 19 19 14 10 2 23 18 6 7 13 22 7 10 14 8 22 13 14 16 23 29 32
21 21 22 24 25 25 26 28 30 29 25 20 21 22 27 29 29 27 30 39 33 28 21 18 21 22 18 6 2 6 4 16 10 8 11 19 23 9 22 20 20 18 19 26 30
22 23 21 22 23 25 26 28 30 28 24 18 18 17 15 16 13 8 11 18 20 16 25 25 13 15 7 11 3 6 7 13 8 13 9 13 9 20 24 20 23 24 24 25 27
24 22 20 20 22 22 23 27 28 12 4 7 6 5 17 16 10 11 7 11 14 17 11 19 14 7 7 10 16 11 17 5 9 9 9 7 7 6 10 24 27 33 30 28 29
25 21 17 19 22 20 22 24 16 5 13 12 21 22 30 24 26 26 19 21 12 14 13 25 13 13 22 24 20 11 6 17 11 4 7 18 17 18 17 12 15 25 30 34 37
23 20 17 19 17 18 17 12 6 11 14 38 33 41 43 36 31 44 35 15 10 17 20 13 24 20 18 18 16 15 7 8 2 4 5 2 11 15 13 14 21 25 29 32 33
22 20 18 17 13 16 7 7 15 16 7 21 10 14 14 6 12 28 21 12 14 16 22 23 12 23 22 17 18 21 20 10 2 4 1 4 7 8 6 13 24 30 35 38 40
22 20 17 15 11 8 9 11 11 14 5 7 4 2 4 1 6 25 23 21 10 20 23 22 24 21 26 24 17 20 18 15 10 3 4 5 7 7 6 13 11 22 30 37 37
21 19 14 15 8 11 9 7 10 2 5 4 3 3 11 5 14 5 25 17 22 17 12 23 22 29 25 21 19 10 12 17 16 13 3 3 4 6 6 12 13 13 27 38 39
20 18 14 16 13 10 5 5 3 5 7 6 2 5 7 7 10 10 9 15 10 16 25 22 26 24 25 20 23 14 10 13 11 9 8 19 13 11 15 7 6 15 24 33 31
21 17 17 17 11 6 4 3 4 3 4 3 3 6 13 8 5 9 8 9 9 9 22 11 27 15 13 21 20 19 8 5 6 7 7 18 13 22 7 5 13 15 23 30 32
20 16 17 17 13 9 3 4 4 4 6 5 6 13 9 6 3 5 12 10 8 17 18 13 13 30 18 21 11 22 16 5 7 6 12 10 12 8 17 23 23 26 26 26 25
19 19 18 16 15 12 11 2 6 6 3 5 9 5 4 2 5 6 3 6 3 10 5 6 15 14 21 10 25 17 11 15 4 3 1 5 6 6 4 8 11 18 22 32 30
23 16 18 13 13 20 3 8 5 4 2 4 2 3 3 4 7 5 3 5 4 3 1 5 9 5 24 16 24 15 22 10 6 8 7 5 5 8 11 14 13 13 16 28 34
22 8 7 15 20 16 4 6 4 11 6 5 4 5 5 5 6 4 6 7 3 3 4 7 6 6 15 20 24 17 15 6 4 3 5 4 6 7 12 18 17 17 21 20 20
19 3 20 26 5 4 3 5 6 5 8 8 4 9 10 5 5 3 6 5 4 2 4 3 4 5 8 18 23 24 21 19 8 7 4 2 8 3 11 13 10 9 2 17 22
17 7 24 30 5 4 2 3 5 5 7 4 6 8 5 4 5 6 6 10 7 3 2 2 2 5 6 4 15 20 20 21 11 4 13 11 5 2 2 6 7 7 11 9 13
11 4 7 15 6 6 4 4 4 9 6 6 5 4 4 4 6 4 6 3 10 10 15 5 4 6 9 5 3 7 17 20 22 15 16 13 17 7 4 5 5 9 9 7 15
10 5 8 5 5 6 6 3 3 3 6 6 3 4 2 4 4 2 3 8 6 6 6 1 3 5 11 16 12 13 13 16 23 20 17 20 23 17 10 7 6 6 9 11 13
12 6 6 4 8 12 10 7 13 11 5 4 7 11 7 5 4 4 5 1 5 2 3 3 5 13 13 16 10 9 11 11 17 16 11 14 18 5 9 14 9 12 13 13 17
14 14 10 10 7 8 8 14 11 7 9 14 10 1 5 10 9 12 13 18 16 12 2 3 3 4 5 7 15 9 13 14 8 18 16 16 28 11 10 17 17 20 15 17 19
Wind_Direction
340 334 339 337 328 326 315 314 317 320 317 312 311 308 315 280 278 271 265 256 260 248 263 271 267 235 206 215 211 190 200 224 210 181 237 208 199 209 191 162 173 186 186 171 175
335 326 330 331 327 320 317 314 314 316 325 323 321 313 307 309 286 273 256 254 258 259 269 258 247 227 213 217 206 187 216 223 208 207 228 289 222 171 163 159 195 182 177 166 176
325 323 325 324 323 329 321 319 320 314 318 321 316 314 316 314 301 281 281 254 267 260 249 245 235 229 217 220 204 201 228 209 237 227 220 266 232 199 145 206 196 193 185 175 180
318 317 318 318 321 318 320 320 316 312 313 314 314 309 302 300 276 5 317 151 202 244 236 219 216 212 193 210 216 220 225 203 231 240 238 252 310 266 202 209 222 215 196 183 188
313 314 315 316 315 315 320 317 314 313 311 304 306 310 308 270 251 257 177 199 220 17 207 198 202 204 206 184 212 224 224 210 223 238 227 264 261 257 261 242 246 215 203 199 196
306 306 306 308 312 318 317 318 315 315 308 299 291 296 289 267 271 286 244 235 264 268 253 229 218 214 231 218 192 207 222 229 219 234 240 230 261 185 271 249 234 210 204 205 202
299 302 302 302 307 315 313 315 315 313 311 293 285 282 268 252 264 272 271 252 261 256 264 253 244 207 217 209 228 220 218 237 223 225 213 197 259 211 246 249 221 211 204 207 209
297 296 295 298 307 312 311 315 318 314 307 286 283 275 263 267 280 279 271 266 259 260 239 246 235 237 235 249 140 179 200 237 213 175 225 206 249 233 243 229 228 223 209 212 216
293 299 295 300 305 310 311 317 320 317 293 284 278 243 268 268 263 292 303 295 277 269 236 240 240 212 181 216 271 204 226 222 235 199 187 200 226 241 237 215 226 226 224 219 218
288 295 290 296 303 308 314 323 327 310 309 278 265 234 253 259 275 256 298 340 290 237 255 222 229 191 173 177 214 207 220 205 206 200 198 184 222 254 201 206 214 223 224 225 225
280 284 285 290 307 314 323 337 2 327 315 272 265 259 261 257 274 269 274 310 285 220 221 204 217 205 194 212 218 175 196 220 226 203 172 221 227 228 222 205 224 231 229 229 234
268 275 279 290 305 312 327 359 7 312 292 291 269 265 271 269 283 274 272 275 210 212 217 213 220 211 213 216 219 225 206 213 225 163 183 172 242 242 212 229 228 231 237 240 242
258 264 268 284 299 306 326 341 329 327 281 295 262 253 276 258 249 283 247 223 235 224 218 221 202 213 208 208 204 220 222 206 158 139 88 326 253 256 219 217 239 240 244 249 248
250 257 264 275 288 279 322 330 326 330 309 280 269 266 351 301 265 299 292 216 230 237 209 234 227 215 213 217 205 219 218 218 208 144 220 185 276 252 228 226 224 233 233 241 245
245 249 252 261 257 281 317 326 328 34 359 264 262 100 24 16 294 316 335 204 230 232 192 216 219 211 221 204 200 228 195 210 214 220 166 207 270 251 228 230 237 240 238 240 242
241 236 234 247 262 281 295 331 16 50 253 313 326 348 8 339 310 327 352 226 263 261 255 244 216 216 215 205 206 194 192 193 202 198 227 229 226 230 235 192 226 240 240 241 241
231 230 226 244 252 264 290 85 38 156 334 302 354 345 344 346 323 352 334 294 227 215 248 243 235 207 193 210 191 199 195 161 201 192 230 210 216 241 249 214 214 229 240 244 248
232 217 225 237 243 237 154 66 161 234 264 313 353 327 303 0 293 319 337 343 272 255 280 221 220 209 185 200 185 188 191 161 163 157 225 144 215 234 210 232 237 234 244 255 250
217 209 223 229 236 214 149 126 214 216 230 330 329 301 320 49 332 338 280 280 279 4 336 293 219 184 198 181 176 193 206 181 84 343 37 176 269 278 227 231 229 240 230 242 245
202 202 219 223 215 180 150 224 227 223 298 60 273 270 267 294 336 8 278 251 286 42 266 292 299 218 191 182 196 183 193 185 209 174 227 219 267 212 193 209 215 229 230 231 239
192 166 174 179 168 171 217 213 221 239 238 200 227 257 251 284 235 249 252 282 84 334 347 299 247 324 198 198 187 198 197 186 135 203 224 174 245 207 192 212 214 226 226 225 231
165 159 167 168 168 194 191 189 214 219 228 236 237 245 248 257 259 252 247 232 142 271 323 335 295 304 250 200 206 197 200 187 195 177 214 214 243 285 216 207 223 237 213 255 232
153 139 177 180 198 197 277 232 228 216 214 216 231 215 218 247 283 228 309 3 40 288 270 313 38 330 286 228 211 203 205 194 206 125 211 216 232 313 189 244 230 232 238 226 203
150 154 182 206 225 144 153 229 232 220 229 229 256 268 271 262 234 281 319 300 308 280 271 213 197 215 259 354 283 292 225 207 204 207 215 210 235 233 247 241 239 218 209 200 186
167 202 185 181 196 174 147 172 213 228 218 211 239 243 276 289 347 307 306 318 312 351 7 274 265 239 278 297 277 261 261 249 201 209 212 216 223 212 216 233 235 204 181 191 188
161 157 162 175 167 194 187 197 226 239 203 211 248 270 262 210 248 282 288 308 271 311 32 15 299 317 296 293 296 301 252 247 219 201 237 251 257 158 223 234 253 203 197 197 196
191 177 163 177 170 185 192 202 208 206 237 236 249 4 275 264 258 269 263 266 253 267 230 261 251 280 266 318 309 295 207 188 224 219 214 234 239 180 212 217 229 250 230 219 212
Height
1525 1523 1520 1517 1513 1511 1508 1506 1503 1500 1498 1495 1491 1489 1486 1482 1479 1478 1471 1474 1477 1484 1484 1485 1487 1488 1488 1489 1489 1489 1492 1490 1487 1489 1479 1476 1477 1474 1476 1477 1479 1481 1482 1483 1487
1522 1519 1517 1515 1513 1509 1506 1502 1499 1497 1494 1491 1489 1485 1482 1478 1473 1458 1465 1467 1469 1477 1478 1480 1482 1484 1485 1484 1485 1483 1484 1481 1478 1477 1475 1473 1473 1472 1474 1476 1479 1479 1480 1482 1485
1521 1518 1514 1511 1506 1504 1502 1499 1496 1493 1490 1488 1485 1482 1479 1476 1467 1448 1454 1459 1466 1468 1470 1473 1478 1481 1480 1480 1479 1477 1472 1474 1474 1473 1473 1473 1471 1470 1470 1475 1471 1472 1475 1479 1483
1518 1515 1512 1508 1505 1501 1498 1495 1492 1489 1486 1484 1482 1478 1477 1476 1472 1453 1450 1456 1458 1459 1462 1464 1470 1474 1473 1473 1473 1475 1469 1470 1472 1471 1472 1471 1469 1469 1468 1466 1468 1470 1473 1475 1479
1513 1511 1508 1505 1501 1498 1493 1489 1485 1483 1481 1478 1477 1476 1474 1469 1454 1458 1456 1454 1454 1456 1456 1459 1461 1465 1464 1464 1469 1468 1466 1465 1467 1468 1468 1469 1468 1468 1465 1465 1466 1467 1470 1473 1475
1507 1504 1502 1499 1497 1494 1491 1486 1481 1477 1476 1473 1472 1472 1471 1462 1449 1450 1449 1450 1451 1456 1457 1459 1457 1458 1460 1459 1459 1459 1461 1461 1461 1463 1465 1466 1464 1466 1462 1462 1463 1464 1466 1469 1472
1501 1499 1498 1495 1491 1489 1485 1481 1476 1472 1469 1468 1466 1467 1461 1445 1445 1447 1445 1446 1447 1452 1454 1455 1456 1456 1455 1455 1454 1456 1460 1459 1455 1457 1461 1463 1460 1461 1459 1462 1462 1461 1463 1466 1469
1497 1494 1492 1489 1487 1484 1480 1476 1472 1467 1463 1461 1461 1460 1447 1440 1441 1439 1441 1439 1443 1446 1450 1451 1452 1452 1452 1451 1451 1454 1458 1456 1446 1451 1453 1460 1452 1453 1454 1458 1459 1459 1460 1463 1466
1492 1490 1488 1484 1482 1479 1475 1470 1466 1460 1455 1454 1454 1455 1444 1436 1434 1435 1436 1432 1433 1438 1443 1448 1448 1444 1446 1451 1454 1450 1447 1450 1446 1441 1446 1448 1448 1445 1449 1452 1454 1455 1456 1458 1461
1487 1484 1482 1480 1476 1472 1468 1464 1460 1455 1451 1451 1450 1453 1439 1431 1430 1430 1432 1430 1428 1434 1438 1442 1441 1435 1438 1442 1439 1437 1443 1444 1442 1438 1440 1445 1446 1441 1442 1444 1444 1447 1451 1452 1454
1480 1478 1476 1475 1473 1468 1464 1460 1459 1456 1453 1451 1447 1441 1431 1428 1426 1425 1429 1429 1427 1430 1427 1428 1430 1422 1424 1424 1426 1428 1435 1435 1434 1432 1435 1432 1434 1432 1436 1439 1439 1441 1444 1445 1446
1473 1473 1472 1471 1468 1465 1461 1461 1462 1463 1447 1433 1432 1426 1422 1428 1420 1415 1430 1433 1426 1419 1417 1420 1409 1415 1420 1424 1428 1429 1431 1432 1431 1429 1435 1436 1434 1428 1429 1429 1430 1431 1433 1436 1439
1465 1467 1466 1465 1465 1464 1460 1460 1460 1457 1452 1424 1422 1420 1418 1420 1419 1409 1416 1417 1417 1411 1413 1403 1402 1410 1412 1416 1422 1424 1424 1430 1428 1429 1435 1436 1432 1426 1422 1423 1423 1424 1425 1428 1430
1457 1460 1463 1462 1463 1461 1459 1458 1456 1454 1454 1431 1419 1417 1417 1417 1417 1409 1407 1412 1408 1399 1402 1403 1395 1398 1401 1406 1413 1418 1418 1424 1426 1429 1440 1433 1427 1424 1416 1415 1414 1415 1416 1418 1420
1450 1454 1456 1456 1457 1458 1458 1454 1454 1455 1481 1423 1418 1415 1417 1420 1416 1406 1403 1403 1398 1391 1393 1388 1386 1389 1392 1394 1406 1409 1416 1419 1422 1426 1432 1434 1438 1408 1410 1410 1406 1406 1408 1408 1409
1443 1447 1450 1452 1454 1454 1453 1453 1453 1469 1477 1424 1418 1418 1418 1415 1411 1405 1401 1400 1397 1397 1387 1379 1372 1379 1378 1389 1395 1405 1410 1415 1418 1421 1438 1426 1428 1402 1399 1402 1401 1397 1397 1398 1400
1437 1440 1443 1446 1449 1450 1449 1452 1467 1476 1433 1422 1422 1419 1419 1417 1410 1409 1404 1402 1394 1396 1377 1381 1374 1369 1376 1385 1392 1400 1409 1420 1426 1426 1415 1403 1424 1390 1389 1391 1389 1388 1388 1390 1393
1431 1435 1437 1441 1444 1446 1447 1454 1470 1441 1437 1425 1423 1420 1421 1417 1412 1408 1405 1405 1391 1390 1381 1371 1358 1361 1358 1368 1376 1384 1398 1398 1401 1408 1395 1402 1407 1378 1379 1380 1382 1382 1382 1384 1386
1423 1427 1432 1437 1441 1442 1446 1462 1443 1439 1433 1429 1425 1422 1420 1417 1418 1409 1403 1400 1397 1397 1388 1368 1354 1342 1347 1356 1364 1379 1385 1377 1401 1403 1401 1403 1386 1379 1376 1376 1376 1375 1376 1376 1378
1417 1423 1426 1432 1436 1440 1443 1436 1435 1432 1429 1429 1436 1428 1434 1422 1421 1422 1405 1395 1395 1395 1398 1385 1361 1335 1342 1351 1354 1360 1363 1385 1388 1394 1395 1399 1386 1364 1372 1367 1367 1367 1365 1366 1369
1413 1419 1424 1429 1433 1435 1435 1432 1428 1427 1428 1430 1430 1429 1425 1422 1419 1416 1406 1394 1396 1395 1394 1391 1376 1349 1337 1333 1340 1357 1361 1369 1379 1387 1371 1387 1373 1361 1358 1356 1356 1356 1355 1359 1364
1408 1417 1419 1423 1429 1427 1427 1424 1424 1422 1423 1424 1425 1423 1421 1416 1413 1411 1403 1395 1393 1395 1392 1390 1379 1362 1340 1332 1333 1337 1342 1356 1365 1380 1385 1377 1356 1348 1345 1345 1348 1349 1354 1358 1361
1405 1412 1417 1418 1417 1420 1421 1420 1419 1418 1418 1419 1417 1415 1411 1412 1410 1404 1398 1393 1393 1392 1389 1387 1383 1376 1347 1342 1336 1333 1336 1344 1352 1363 1364 1369 1360 1348 1346 1347 1347 1349 1351 1353 1355
1402 1409 1409 1409 1408 1410 1418 1418 1416 1410 1411 1412 1412 1410 1410 1408 1404 1400 1399 1393 1391 1388 1384 1385 1382 1381 1369 1369 1370 1353 1340 1338 1343 1350 1352 1360 1349 1349 1347 1346 1345 1347 1349 1352 1354
1393 1395 1396 1400 1403 1405 1412 1416 1413 1411 1407 1406 1407 1407 1408 1408 1405 1402 1397 1394 1388 1385 1382 1380 1374 1372 1370 1362 1365 1361 1361 1346 1338 1343 1343 1343 1345 1342 1343 1344 1343 1344 1347 1350 1353
1386 1392 1395 1396 1398 1402 1403 1406 1407 1405 1407 1404 1404 1403 1404 1407 1404 1404 1401 1400 1395 1387 1388 1388 1379 1373 1365 1355 1352 1353 1353 1352 1339 1340 1345 1342 1337 1337 1342 1341 1343 1345 1346 1347 1349
1377 1380 1384 1389 1393 1397 1392 1392 1397 1400 1398 1397 1399 1402 1403 1400 1399 1399 1398 1394 1393 1390 1389 1390 1385 1374 1365 1354 1348 1336 1324 1331 1339 1341 1342 1342 1321 1333 1338 1335 1336 1338 1341 1343 1346